Location: Blandford
(50.8667°N, 2.1667°W)
Time: 22:15:57
(UTC+00:00)

Iridium 4 Rocket - Pass Details

Date: 09 April 2020
Orbit: 585 x 904 km, 86.9° (Epoch: 28 May)

Event Time Altitude Azimuth Distance (km) Brightness Sun altitude
Rises 19:51:11 0° 8° (N) 2,865 6.7 -9.2°
Reaches altitude 10° 19:53:56 10° 25° (NNE) 1,934 5.6 -9.6°
Maximum altitude 19:57:02 20° 73° (ENE) 1,396 4.5 -10.0°
Enters shadow 19:59:07 14° 110° (ESE) 1,655 4.6 -10.3°
